Location: Unspecified
(0.0000°N, 0.0000°E)
Time: 11:29:03
(UTC+00:00)

Tiangong - Pass Details

Date: 05 February 2026
Orbit: 386 x 391 km, 41.5° (Epoch: 15 February)

Event Time Altitude Azimuth Distance (km) Brightness Sun altitude
Exits shadow 05:18:26 - 345° (NNW) 1,469 0.5 -13.3°
Reaches altitude 10° 05:18:36 10° 346° (NNW) 1,412 0.4 -13.3°
Maximum altitude 05:21:17 25° 44° (NE) 841 -0.1 -12.7°
Drops below altitude 10° 05:23:58 10° 101° (E) 1,420 2.3 -12.0°
Sets 05:26:17 0° 115° (ESE) 2,278 3.8 -11.5°
